This demonstration page uses our WeatherBlox Daily Observations layout. Learn more.

Left ArrowRight Arrow

Hourly Observations for October 21, 2015

Temp ( °F °C ) Dew Point ( °F °C ) Humidity (%) Winds ( mph kmh ) Pressure ( in mb ) Visibility ( mi km ) Precip ( " mm )
12:53 am 00:53 Clear 71 21.7 41 5 34 34 NNW 10 17 29.98 1015 10 16 0.00 0.00
1:53 am 01:53 Clear 70 21.1 41 5 35 35 N 9 15 29.98 1015 10 16 0.00 0.00
2:53 am 02:53 Clear 69 20.6 41 5 36 36 N 10 17 29.99 1016 10 16 0.00 0.00
3:53 am 03:53 Clear 69 20.6 41 5 36 36 NNW 10 17 29.99 1016 10 16 0.00 0.00
4:53 am 04:53 Clear 68 20 40 4.4 36 36 N 12 19 29.99 1016 10 16 0.00 0.00
5:53 am 05:53 Clear 67 19.4 39 3.9 36 36 NNW 9 15 30.00 1016 10 16 0.00 0.00
6:53 am 06:53 Clear 66 18.9 39 3.9 37 37 NNW 7 11 30.00 1016 10 16 0.00 0.00
7:53 am 07:53 Sunny 67 19.4 39 3.9 36 36 N 9 15 30.01 1016 10 16 0.00 0.00
8:53 am 08:53 Sunny 70 21.1 38 3.3 31 31 N 14 22 30.01 1016 10 16 0.00 0.00
9:53 am 09:53 Sunny 73 22.8 38 3.3 28 28 NNW 13 20 30.00 1016 10 16 0.00 0.00
10:53 am 10:53 Sunny 76 24.4 37 2.8 24 24 NNW 13 20 29.99 1016 10 16 0.00 0.00
11:53 am 11:53 Sunny 79 26.1 37 2.8 22 22 N 9 15 29.96 1015 10 16 0.00 0.00
12:53 pm 12:53 Sunny 83 28.3 36 2.2 19 19 NNE 10 17 29.94 1014 10 16 0.00 0.00
1:53 pm 13:53 Sunny 85 29.4 34 1.1 16 16 NNE 10 17 29.91 1013 10 16 0.00 0.00
2:53 pm 14:53 Sunny 87 30.6 33 0.6 14 14 NNE 9 15 29.88 1012 10 16 0.00 0.00
3:53 pm 15:53 Sunny 87 30.6 33 0.6 14 14 N 6 9 29.86 1011 10 16 0.00 0.00
4:53 pm 16:53 Sunny 87 30.6 34 1.1 15 15 NE 9 15 29.84 1011 10 16 0.00 0.00
5:53 pm 17:53 Sunny 84 28.9 37 2.8 19 19 Calm 29.84 1011 10 16 0.00 0.00
6:53 pm 18:53 Clear 75 23.9 37 2.8 25 25 Calm 29.85 1011 10 16 0.00 0.00
7:53 pm 19:53 Clear 73 22.8 40 4.4 30 30 NW 6 9 29.86 1011 10 16 0.00 0.00
8:53 pm 20:53 Clear 66 18.9 40 4.4 39 39 NW 5 7 29.87 1012 10 16 0.00 0.00
9:53 pm 21:53 Clear 63 17.2 41 5 45 45 Calm 29.88 1012 10 16 0.00 0.00
10:53 pm 22:53 Clear 61 16.1 40 4.4 46 46 Calm 29.88 1012 10 16 0.00 0.00
11:53 pm 23:53 Clear 61 16.1 42 5.6 50 50 Calm 29.88 1012 10 16 0.00 0.00

Powered by AerisWeather